FLI415 EGPH-EKVG

Flight info

Callsign FLI415
Flight time 1h 17m
Altitude 37000
Route GRICE P600 GLESK DCT SMOKI DCT NALAN/M063F240 DCT SUDUR
Aircraft A20N/M-SDE2E3FGHIRWXY/LB1

Departure

Time 2026-04-25 13:52
Airport Edinburgh Airport (EGPH)

Arrival

Time 2026-04-25 15:09
Airport Vágar Airport (EKVG)
Time Latitude Longitude Altitude Speed Heading
2026-04-25 13:26 55.94659 -3.36610 140 ft 0 kts 89°
2026-04-25 13:41 55.94658 -3.36635 141 ft 2 kts 89°
2026-04-25 13:41 55.94658 -3.36659 141 ft 0 kts 89°
2026-04-25 13:41 55.94658 -3.36679 141 ft 2 kts 74°
2026-04-25 13:42 55.94651 -3.36703 141 ft 2 kts 53°
2026-04-25 13:42 55.94640 -3.36722 141 ft 2 kts 32°
2026-04-25 13:42 55.94626 -3.36733 141 ft 2 kts 11°
2026-04-25 13:42 55.94618 -3.36735 141 ft 1 kts 359°
2026-04-25 13:43 55.94613 -3.36734 141 ft 0 kts 359°
2026-04-25 13:45 55.94615 -3.36734 140 ft 0 kts 359°
2026-04-25 13:46 55.94624 -3.36735 140 ft 2 kts 359°
2026-04-25 13:46 55.94643 -3.36735 140 ft 3 kts 359°
2026-04-25 13:46 55.94672 -3.36737 140 ft 5 kts 359°
2026-04-25 13:46 55.94714 -3.36739 140 ft 6 kts 359°
2026-04-25 13:47 55.94765 -3.36760 140 ft 8 kts 332°
2026-04-25 13:47 55.94828 -3.36779 140 ft 10 kts
2026-04-25 13:47 55.94902 -3.36811 140 ft 11 kts 325°
2026-04-25 13:47 55.94910 -3.36941 140 ft 13 kts 239°
2026-04-25 13:48 55.94860 -3.37087 140 ft 14 kts 237°
2026-04-25 13:48 55.94806 -3.37248 140 ft 15 kts 239°
2026-04-25 13:48 55.94749 -3.37419 140 ft 16 kts 239°
2026-04-25 13:48 55.94687 -3.37601 140 ft 17 kts 239°
2026-04-25 13:49 55.94623 -3.37788 141 ft 18 kts 239°
2026-04-25 13:49 55.94556 -3.37987 140 ft 18 kts 239°
2026-04-25 13:49 55.94487 -3.38189 140 ft 19 kts 239°
2026-04-25 13:49 55.94416 -3.38399 141 ft 19 kts 239°
2026-04-25 13:50 55.94345 -3.38609 141 ft 19 kts 239°
2026-04-25 13:50 55.94286 -3.38790 140 ft 13 kts 250°
2026-04-25 13:50 55.94322 -3.38897 140 ft 8 kts 326°
2026-04-25 13:50 55.94374 -3.38954 140 ft 9 kts 336°
2026-04-25 13:51 55.94430 -3.38926 140 ft 6 kts 57°
2026-04-25 13:51 55.94448 -3.38876 140 ft 5 kts 59°
2026-04-25 13:51 55.94532 -3.38627 141 ft 55 kts 59°
2026-04-25 13:51 55.94848 -3.37691 141 ft 119 kts 59°
2026-04-25 13:52 55.95362 -3.36176 241 ft 159 kts 58°
2026-04-25 13:52 55.95956 -3.34443 717 ft 168 kts 55°
2026-04-25 13:52 55.96793 -3.32955 1281 ft 178 kts 36°
2026-04-25 13:52 55.97849 -3.31680 1868 ft 185 kts 41°
2026-04-25 13:53 55.98779 -3.30111 2424 ft 192 kts 45°
2026-04-25 13:53 55.99845 -3.28517 2811 ft 209 kts 25°
2026-04-25 13:53 56.01344 -3.28212 3157 ft 232 kts 346°
2026-04-25 13:53 56.02819 -3.29530 3619 ft 249 kts 328°
2026-04-25 13:54 56.04308 -3.31263 4238 ft 260 kts 327°
2026-04-25 13:54 56.05827 -3.33014 5046 ft 262 kts 328°
2026-04-25 13:54 56.07257 -3.35045 5603 ft 262 kts 309°
2026-04-25 13:54 56.08074 -3.37934 5929 ft 262 kts 286°
2026-04-25 13:55 56.08477 -3.41086 5975 ft 260 kts 281°
2026-04-25 13:55 56.08813 -3.44286 5984 ft 260 kts 281°
2026-04-25 13:55 56.09175 -3.47486 6096 ft 265 kts 282°
2026-04-25 13:55 56.09777 -3.50611 6793 ft 270 kts 304°
2026-04-25 13:56 56.11131 -3.52724 7721 ft 270 kts 334°
2026-04-25 13:56 56.12983 -3.53532 8578 ft 274 kts 353°
2026-04-25 13:56 56.14885 -3.53762 9379 ft 277 kts 355°
2026-04-25 13:56 56.16806 -3.53982 10155 ft 280 kts 354°
2026-04-25 13:57 56.18752 -3.54252 10853 ft 286 kts 353°
2026-04-25 13:57 56.20082 -3.54461 11118 ft 297 kts 353°
2026-04-25 13:57 56.22926 -3.54945 11565 ft 320 kts 352°
2026-04-25 13:57 56.25161 -3.55336 12087 ft 330 kts 352°
2026-04-25 13:58 56.27457 -3.55645 12812 ft 334 kts 359°
2026-04-25 13:58 56.29768 -3.54925 13469 ft 344 kts 18°
2026-04-25 13:58 56.31889 -3.52909 14150 ft 350 kts 32°
2026-04-25 13:58 56.33884 -3.50358 14836 ft 354 kts 34°
2026-04-25 13:59 56.35876 -3.47721 15481 ft 357 kts 34°
2026-04-25 13:59 56.37878 -3.45084 16113 ft 361 kts 34°
2026-04-25 13:59 56.39914 -3.42426 16716 ft 365 kts 34°
2026-04-25 13:59 56.41978 -3.39740 17322 ft 368 kts 34°
2026-04-25 14:00 56.44076 -3.37011 17928 ft 372 kts 34°
2026-04-25 14:00 56.46192 -3.34339 18515 ft 374 kts 33°
2026-04-25 14:00 56.48360 -3.31667 19098 ft 377 kts 33°
2026-04-25 14:00 56.50521 -3.29009 19661 ft 380 kts 33°
2026-04-25 14:01 56.52723 -3.26293 20219 ft 383 kts 33°
2026-04-25 14:01 56.54904 -3.23596 20757 ft 386 kts 33°
2026-04-25 14:01 56.57122 -3.20844 21293 ft 389 kts 33°
2026-04-25 14:01 56.59366 -3.18058 21812 ft 392 kts 33°
2026-04-25 14:02 56.61608 -3.15265 22317 ft 394 kts 33°
2026-04-25 14:02 56.63888 -3.12424 22819 ft 397 kts 33°
2026-04-25 14:02 56.66163 -3.09581 23302 ft 400 kts 33°
2026-04-25 14:02 56.67675 -3.07689 23620 ft 401 kts 33°
2026-04-25 14:03 56.70742 -3.03846 24237 ft 405 kts 33°
2026-04-25 14:03 56.73069 -3.00927 24680 ft 407 kts 33°
2026-04-25 14:03 56.75412 -2.97983 25114 ft 410 kts 33°
2026-04-25 14:03 56.77742 -2.95053 25524 ft 412 kts 33°
2026-04-25 14:04 56.80110 -2.92063 25925 ft 415 kts 33°
2026-04-25 14:04 56.82496 -2.89046 26322 ft 417 kts 33°
2026-04-25 14:04 56.84889 -2.86016 26705 ft 420 kts 33°
2026-04-25 14:04 56.87280 -2.83046 27057 ft 422 kts 30°
2026-04-25 14:05 56.89902 -2.80611 27398 ft 423 kts 20°
2026-04-25 14:05 56.92691 -2.79030 27737 ft 424 kts 11°
2026-04-25 14:05 56.95615 -2.78177 28086 ft 425 kts
2026-04-25 14:05 56.98537 -2.77535 28423 ft 427 kts
2026-04-25 14:06 57.01494 -2.76920 28745 ft 429 kts
2026-04-25 14:06 57.04467 -2.76294 29155 ft 429 kts
2026-04-25 14:06 57.07403 -2.75665 29603 ft 427 kts
2026-04-25 14:06 57.10338 -2.75026 30047 ft 426 kts
2026-04-25 14:07 57.13309 -2.74376 30480 ft 424 kts
2026-04-25 14:07 57.16211 -2.73739 30894 ft 423 kts
2026-04-25 14:07 57.19139 -2.73093 31308 ft 422 kts
2026-04-25 14:07 57.22013 -2.72455 31722 ft 420 kts
2026-04-25 14:08 57.24923 -2.71807 32140 ft 418 kts
2026-04-25 14:08 57.27792 -2.71167 32525 ft 417 kts
2026-04-25 14:08 57.30638 -2.70530 32878 ft 415 kts
2026-04-25 14:08 57.33521 -2.69883 33250 ft 414 kts
2026-04-25 14:09 57.36340 -2.69250 33594 ft 412 kts
2026-04-25 14:09 57.39182 -2.68611 33920 ft 411 kts
2026-04-25 14:09 57.42021 -2.67971 34249 ft 409 kts
2026-04-25 14:09 57.43885 -2.67550 34457 ft 408 kts
2026-04-25 14:10 57.47633 -2.66701 34828 ft 407 kts
2026-04-25 14:10 57.50437 -2.66066 35094 ft 407 kts
2026-04-25 14:10 57.53234 -2.65431 35363 ft 406 kts
2026-04-25 14:10 57.56006 -2.64803 35611 ft 405 kts
2026-04-25 14:11 57.58808 -2.64166 35837 ft 405 kts
2026-04-25 14:11 57.61599 -2.63530 36039 ft 405 kts
2026-04-25 14:11 57.64368 -2.62900 36210 ft 406 kts
2026-04-25 14:11 57.67178 -2.62257 36365 ft 407 kts
2026-04-25 14:12 57.69984 -2.61663 36514 ft 407 kts
2026-04-25 14:12 57.72815 -2.61477 36652 ft 408 kts 358°
2026-04-25 14:12 57.75607 -2.61796 36785 ft 409 kts 353°
2026-04-25 14:12 57.78427 -2.62634 36918 ft 410 kts 348°
2026-04-25 14:13 57.81166 -2.63969 37044 ft 411 kts 342°
2026-04-25 14:13 57.83872 -2.65834 37167 ft 412 kts 337°
2026-04-25 14:13 57.86439 -2.68095 37278 ft 414 kts 334°
2026-04-25 14:14 57.91568 -2.72988 37284 ft 415 kts 334°
2026-04-25 14:14 57.96708 -2.77935 37288 ft 416 kts 334°
2026-04-25 14:15 58.01843 -2.82881 37293 ft 414 kts 334°
2026-04-25 14:15 58.06914 -2.87771 37289 ft 412 kts 334°
2026-04-25 14:16 58.12021 -2.92700 37288 ft 412 kts 334°
2026-04-25 14:16 58.17135 -2.97631 37288 ft 412 kts 334°
2026-04-25 14:17 58.22227 -3.02571 37288 ft 413 kts 334°
2026-04-25 14:17 58.27323 -3.07538 37288 ft 413 kts 334°
2026-04-25 14:18 58.32459 -3.12563 37289 ft 414 kts 334°
2026-04-25 14:18 58.37548 -3.17561 37287 ft 414 kts 334°
2026-04-25 14:19 58.42702 -3.22640 37288 ft 415 kts 334°
2026-04-25 14:19 58.47851 -3.27731 37288 ft 415 kts 334°
2026-04-25 14:20 58.52985 -3.32823 37289 ft 415 kts 334°
2026-04-25 14:20 58.58086 -3.37900 37289 ft 415 kts 334°
2026-04-25 14:21 58.63198 -3.43004 37288 ft 415 kts 334°
2026-04-25 14:21 58.68335 -3.48151 37288 ft 415 kts 334°
2026-04-25 14:22 58.73448 -3.53291 37288 ft 415 kts 334°
2026-04-25 14:22 58.78558 -3.58445 37289 ft 415 kts 334°
2026-04-25 14:23 58.83645 -3.63594 37288 ft 414 kts 334°
2026-04-25 14:23 58.88726 -3.68769 37288 ft 414 kts 333°
2026-04-25 14:24 58.93793 -3.73956 37289 ft 413 kts 333°
2026-04-25 14:24 58.98845 -3.79129 37289 ft 412 kts 333°
2026-04-25 14:25 59.03897 -3.84315 37289 ft 411 kts 333°
2026-04-25 14:25 59.08939 -3.89506 37289 ft 411 kts 333°
2026-04-25 14:26 59.13972 -3.94685 37285 ft 410 kts 333°
2026-04-25 14:26 59.18990 -3.99862 37280 ft 409 kts 333°
2026-04-25 14:27 59.23991 -4.05051 37273 ft 412 kts 333°
2026-04-25 14:27 59.29065 -4.10339 37269 ft 412 kts 333°
2026-04-25 14:28 59.34084 -4.15590 37265 ft 412 kts 333°
2026-04-25 14:28 59.39101 -4.20857 37264 ft 411 kts 333°
2026-04-25 14:29 59.44184 -4.26211 37267 ft 411 kts 333°
2026-04-25 14:29 59.49187 -4.31500 37273 ft 410 kts 333°
2026-04-25 14:30 59.53379 -4.35947 37279 ft 409 kts 333°
2026-04-25 14:30 59.61724 -4.44833 37287 ft 409 kts 333°
2026-04-25 14:31 59.66737 -4.50197 37288 ft 409 kts 333°
2026-04-25 14:31 59.71738 -4.55566 37287 ft 409 kts 333°
2026-04-25 14:32 59.76755 -4.60970 37288 ft 410 kts 333°
2026-04-25 14:32 59.81777 -4.66403 37288 ft 410 kts 332°
2026-04-25 14:33 59.86787 -4.71865 37288 ft 411 kts 332°
2026-04-25 14:33 59.91792 -4.77329 37288 ft 412 kts 332°
2026-04-25 14:34 59.96800 -4.82805 37289 ft 413 kts 332°
2026-04-25 14:34 60.01838 -4.88328 37294 ft 412 kts 332°
2026-04-25 14:35 60.06796 -4.93781 37288 ft 408 kts 332°
2026-04-25 14:35 60.11805 -4.99306 37289 ft 409 kts 332°
2026-04-25 14:36 60.16774 -5.04781 37289 ft 409 kts 332°
2026-04-25 14:36 60.21759 -5.10310 37289 ft 410 kts 332°
2026-04-25 14:37 60.26740 -5.15859 37288 ft 411 kts 332°
2026-04-25 14:37 60.31720 -5.21432 37289 ft 411 kts 332°
2026-04-25 14:38 60.36686 -5.27010 37288 ft 412 kts 332°
2026-04-25 14:38 60.41703 -5.32665 37289 ft 412 kts 332°
2026-04-25 14:39 60.46690 -5.38307 37287 ft 412 kts 332°
2026-04-25 14:39 60.51687 -5.43980 37289 ft 413 kts 332°
2026-04-25 14:40 60.56665 -5.49655 37294 ft 413 kts 332°
2026-04-25 14:40 60.61672 -5.55380 37301 ft 413 kts 332°
2026-04-25 14:41 60.66689 -5.61139 37309 ft 413 kts 332°
2026-04-25 14:41 60.71651 -5.66861 37314 ft 412 kts 331°
2026-04-25 14:42 60.75796 -5.71676 37316 ft 411 kts 331°
2026-04-25 14:42 60.81591 -5.78413 36827 ft 412 kts 331°
2026-04-25 14:43 60.84060 -5.81288 36335 ft 410 kts 331°
2026-04-25 14:43 60.86530 -5.84169 35772 ft 410 kts 331°
2026-04-25 14:43 60.88977 -5.87027 35203 ft 410 kts 331°
2026-04-25 14:43 60.91449 -5.89921 34622 ft 410 kts 330°
2026-04-25 14:44 60.93899 -5.92793 34039 ft 410 kts 330°
2026-04-25 14:44 60.96376 -5.95711 33449 ft 410 kts 329°
2026-04-25 14:44 60.98788 -5.98806 32882 ft 409 kts 327°
2026-04-25 14:44 61.01083 -6.02133 32327 ft 409 kts 323°
2026-04-25 14:45 61.02576 -6.04520 31885 ft 410 kts 321°
2026-04-25 14:45 61.05498 -6.09550 30974 ft 413 kts 320°
2026-04-25 14:45 61.07672 -6.13377 30366 ft 412 kts 320°
2026-04-25 14:45 61.09836 -6.17199 29761 ft 412 kts 320°
2026-04-25 14:46 61.12032 -6.21068 29128 ft 412 kts 320°
2026-04-25 14:46 61.14199 -6.24878 28496 ft 411 kts 320°
2026-04-25 14:46 61.16369 -6.28703 27984 ft 407 kts 320°
2026-04-25 14:46 61.18498 -6.32471 27574 ft 402 kts 320°
2026-04-25 14:47 61.20582 -6.36168 27143 ft 397 kts 320°
2026-04-25 14:47 61.21984 -6.38661 26845 ft 394 kts 320°
2026-04-25 14:47 61.24736 -6.43568 26272 ft 388 kts 320°
2026-04-25 14:47 61.26746 -6.47157 25839 ft 385 kts 320°
2026-04-25 14:48 61.28762 -6.50768 25397 ft 381 kts 320°
2026-04-25 14:48 61.30756 -6.54344 24955 ft 378 kts 320°
2026-04-25 14:48 61.32747 -6.57920 24526 ft 375 kts 320°
2026-04-25 14:48 61.34697 -6.61432 24096 ft 372 kts 320°
2026-04-25 14:49 61.36642 -6.64939 23659 ft 369 kts 320°
2026-04-25 14:49 61.38567 -6.68425 23223 ft 366 kts 319°
2026-04-25 14:49 61.40477 -6.71892 22784 ft 364 kts 319°
2026-04-25 14:49 61.42361 -6.75315 22351 ft 361 kts 319°
2026-04-25 14:50 61.44251 -6.78751 21913 ft 358 kts 319°
2026-04-25 14:50 61.46119 -6.82151 21479 ft 356 kts 319°
2026-04-25 14:50 61.47965 -6.85515 21040 ft 354 kts 319°
2026-04-25 14:50 61.49812 -6.88887 20594 ft 351 kts 319°
2026-04-25 14:51 61.51639 -6.92227 20159 ft 349 kts 319°
2026-04-25 14:51 61.53438 -6.95523 19734 ft 346 kts 319°
2026-04-25 14:51 61.55250 -6.98846 19304 ft 344 kts 319°
2026-04-25 14:51 61.57030 -7.02114 18883 ft 341 kts 319°
2026-04-25 14:52 61.58834 -7.05321 18458 ft 339 kts 322°
2026-04-25 14:52 61.60754 -7.08152 18036 ft 337 kts 327°
2026-04-25 14:52 61.62783 -7.10542 17610 ft 335 kts 332°
2026-04-25 14:52 61.64164 -7.11956 17330 ft 334 kts 333°
2026-04-25 14:53 61.66948 -7.14713 16769 ft 331 kts 334°
2026-04-25 14:53 61.69028 -7.16764 16350 ft 329 kts 334°
2026-04-25 14:53 61.71064 -7.18778 15932 ft 327 kts 333°
2026-04-25 14:53 61.73119 -7.20815 15515 ft 325 kts 333°
2026-04-25 14:54 61.75148 -7.22832 15105 ft 323 kts 333°
2026-04-25 14:54 61.77155 -7.24831 14699 ft 320 kts 333°
2026-04-25 14:54 61.79169 -7.26841 14293 ft 318 kts 333°
2026-04-25 14:54 61.81149 -7.28821 13893 ft 316 kts 333°
2026-04-25 14:55 61.83118 -7.30793 13495 ft 314 kts 333°
2026-04-25 14:55 61.85091 -7.32771 13088 ft 312 kts 333°
2026-04-25 14:55 61.87041 -7.34729 12687 ft 310 kts 333°
2026-04-25 14:55 61.88985 -7.36684 12289 ft 308 kts 333°
2026-04-25 14:56 61.90893 -7.38607 11899 ft 306 kts 333°
2026-04-25 14:56 61.92811 -7.40545 11501 ft 305 kts 333°
2026-04-25 14:56 61.94714 -7.42470 11098 ft 304 kts 333°
2026-04-25 14:56 61.96608 -7.44388 10691 ft 298 kts 334°
2026-04-25 14:57 61.98424 -7.46227 10541 ft 276 kts 334°
2026-04-25 14:57 62.00073 -7.47896 10477 ft 257 kts 334°
2026-04-25 14:57 62.01668 -7.49517 10383 ft 250 kts 334°
2026-04-25 14:57 62.03207 -7.51083 10332 ft 245 kts 334°
2026-04-25 14:58 62.04739 -7.52646 10061 ft 244 kts 334°
2026-04-25 14:58 62.06284 -7.54225 9752 ft 251 kts 334°
2026-04-25 14:58 62.07871 -7.55845 9436 ft 254 kts 334°
2026-04-25 14:58 62.09460 -7.57494 9130 ft 254 kts 332°
2026-04-25 14:59 62.10954 -7.59421 8835 ft 253 kts 325°
2026-04-25 14:59 62.12344 -7.61732 8539 ft 252 kts 321°
2026-04-25 14:59 62.13654 -7.64141 8254 ft 250 kts 320°
2026-04-25 14:59 62.14968 -7.66601 7965 ft 249 kts 319°
2026-04-25 15:00 62.16257 -7.69024 7686 ft 248 kts 319°
2026-04-25 15:00 62.17554 -7.71455 7403 ft 246 kts 319°
2026-04-25 15:00 62.18829 -7.73838 7128 ft 245 kts 319°
2026-04-25 15:00 62.20111 -7.76255 6852 ft 244 kts 316°
2026-04-25 15:01 62.21059 -7.79208 6566 ft 244 kts 291°
2026-04-25 15:01 62.21329 -7.82773 6293 ft 245 kts 266°
2026-04-25 15:01 62.20863 -7.86289 6016 ft 247 kts 241°
2026-04-25 15:01 62.19752 -7.89035 5796 ft 243 kts 216°
2026-04-25 15:02 62.18240 -7.90518 5560 ft 239 kts 191°
2026-04-25 15:02 62.16616 -7.90530 5327 ft 233 kts 166°
2026-04-25 15:02 62.15152 -7.89170 5094 ft 227 kts 142°
2026-04-25 15:02 62.14070 -7.86766 4791 ft 225 kts 118°
2026-04-25 15:03 62.13486 -7.83731 4540 ft 221 kts 102°
2026-04-25 15:03 62.13201 -7.80588 4352 ft 215 kts 98°
2026-04-25 15:03 62.12931 -7.77466 4182 ft 208 kts 100°
2026-04-25 15:03 62.12623 -7.74500 4243 ft 205 kts 102°
2026-04-25 15:04 62.12278 -7.71538 4150 ft 205 kts 103°
2026-04-25 15:04 62.11917 -7.68632 4073 ft 201 kts 103°
2026-04-25 15:04 62.11560 -7.65827 3969 ft 187 kts 103°
2026-04-25 15:04 62.11234 -7.63272 3885 ft 171 kts 103°
2026-04-25 15:05 62.10932 -7.60908 3764 ft 158 kts 103°
2026-04-25 15:05 62.10651 -7.58679 3590 ft 154 kts 103°
2026-04-25 15:05 62.10383 -7.56543 3348 ft 145 kts 103°
2026-04-25 15:06 62.09882 -7.52545 2918 ft 138 kts 103°
2026-04-25 15:06 62.09634 -7.50561 2700 ft 137 kts 103°
2026-04-25 15:06 62.09391 -7.48607 2482 ft 137 kts 103°
2026-04-25 15:06 62.09146 -7.46636 2270 ft 137 kts 103°
2026-04-25 15:07 62.08904 -7.44688 2056 ft 136 kts 103°
2026-04-25 15:07 62.08660 -7.42725 1838 ft 136 kts 102°
2026-04-25 15:07 62.08419 -7.40780 1635 ft 136 kts 102°
2026-04-25 15:07 62.08178 -7.38827 1416 ft 136 kts 102°
2026-04-25 15:08 62.07934 -7.36841 1187 ft 139 kts 102°
2026-04-25 15:08 62.07702 -7.34872 987 ft 138 kts 103°
2026-04-25 15:08 62.07459 -7.32881 718 ft 136 kts 105°
2026-04-25 15:08 62.07141 -7.31019 505 ft 136 kts 112°
2026-04-25 15:09 62.06720 -7.29184 317 ft 137 kts 116°
2026-04-25 15:09 62.06330 -7.27605 287 ft 84 kts 119°
2026-04-25 15:09 62.05989 -7.26219 287 ft 36 kts 115°
2026-04-25 15:10 62.05944 -7.25977 287 ft 7 kts 145°
2026-04-25 15:10 62.05945 -7.26047 287 ft 8 kts 301°
2026-04-25 15:10 62.06012 -7.26310 287 ft 12 kts 297°
2026-04-25 15:11 62.06056 -7.26493 287 ft 15 kts 297°
2026-04-25 15:11 62.06112 -7.26726 287 ft 19 kts 298°
2026-04-25 15:11 62.06179 -7.26998 286 ft 22 kts 297°
2026-04-25 15:12 62.06337 -7.27632 286 ft 26 kts 298°
2026-04-25 15:12 62.06420 -7.27987 287 ft 24 kts 298°
2026-04-25 15:12 62.06506 -7.28140 286 ft 14 kts 19°
2026-04-25 15:12 62.06552 -7.28098 286 ft 10 kts 21°
2026-04-25 15:13 62.06627 -7.28087 287 ft 7 kts 10°
2026-04-25 15:13 62.06674 -7.27963 287 ft 2 kts 28°
2026-04-25 15:13 62.06685 -7.27951 287 ft 0 kts 27°